Probability
0 0 0 0 0 0 0 0 0 3 6 32 23 13 3 0 0 0 0 0 0 0 0 0 0 0 0 0 0 0 0 0 0 0 0 0 0 0 0 0 0 0 0 0
0 0 0 0 0 0 0 0 0 0 0 16 19 13 3 0 0 0 0 0 0 0 0 0 0 0 0 0 0 0 0 0 0 0 0 0 0 0 0 0 0 0 0 0
0 0 0 0 0 0 0 0 0 3 6 6 10 3 0 0 0 0 0 0 0 0 0 0 0 0 0 0 0 0 0 0 0 0 0 0 0 0 0 0 0 0 0 0
0 0 0 0 0 0 0 0 0 3 0 0 0 0 0 0 0 0 0 0 0 0 0 0 0 0 0 0 0 0 0 0 0 0 0 0 0 0 0 0 0 0 0 0
0 0 0 0 0 0 0 0 0 0 0 0 0 0 0 0 0 0 0 0 0 0 0 0 0 0 0 0 0 0 0 0 0 0 0 0 0 0 0 0 0 0 0 0
0 0 0 0 0 0 0 0 0 0 0 0 0 0 0 0 0 0 0 0 0 0 0 0 0 0 0 0 0 0 0 0 0 0 0 0 0 0 0 0 0 0 0 0
0 0 0 0 0 0 0 0 0 0 0 0 0 0 0 0 0 0 0 0 0 0 0 0 0 0 0 0 0 0 0 0 0 0 0 0 0 0 0 0 0 0 0 0
0 0 0 0 0 0 0 0 0 0 0 0 0 0 0 0 0 0 0 0 0 0 0 0 0 0 0 0 0 0 0 0 0 0 0 0 0 0 0 0 0 0 0 0
0 0 0 0 0 0 0 0 0 0 0 0 0 0 0 0 0 0 0 0 0 0 0 0 0 0 0 0 0 0 0 0 0 0 0 0 0 0 0 0 0 0 0 0
0 0 0 0 0 0 0 0 0 0 0 0 0 0 0 0 0 0 0 0 0 0 0 0 0 0 0 0 0 0 0 0 0 0 0 0 0 0 0 0 0 0 0 0
0 0 0 0 0 0 0 0 0 0 0 0 0 0 0 0 0 0 0 0 0 0 0 0 0 0 0 0 0 0 0 0 0 0 0 0 0 0 0 0 0 0 0 0
0 0 0 0 0 0 0 0 0 0 0 0 0 0 0 0 0 0 0 0 0 0 0 0 0 0 0 0 0 0 0 0 0 0 0 0 0 0 0 0 0 0 0 0
0 0 0 0 0 0 0 0 0 0 0 0 0 0 0 0 0 0 0 0 0 0 0 0 0 0 0 0 0 0 0 0 0 0 0 0 0 0 0 0 0 0 0 0
0 0 0 0 0 0 0 0 0 0 0 0 0 0 0 0 0 0 0 0 0 0 0 0 0 0 0 0 0 0 0 0 0 0 0 0 0 0 0 0 0 0 0 0
0 0 0 0 0 0 0 0 0 0 0 0 0 0 0 0 0 0 0 0 0 0 0 0 0 0 0 0 0 0 0 0 0 0 0 0 0 0 0 0 0 0 0 0
0 0 0 0 0 0 0 0 0 0 0 0 0 0 0 0 0 0 0 0 0 0 0 0 0 0 0 0 0 0 0 0 0 0 0 0 0 0 0 0 0 0 0 0
0 0 0 0 0 0 0 0 0 0 0 0 0 0 0 0 0 0 0 0 0 0 0 0 0 0 0 0 0 0 0 0 0 0 0 0 0 0 0 0 0 0 0 0
0 0 0 0 0 0 0 0 0 0 0 0 0 0 0 0 0 0 0 0 0 0 0 0 0 0 0 0 0 0 0 0 0 0 0 0 0 0 0 0 0 0 0 0
0 0 0 0 0 0 0 0 0 0 0 0 0 0 0 0 0 0 0 0 0 0 0 0 0 0 0 0 0 0 0 0 0 0 0 0 0 0 0 0 0 0 0 0
0 0 0 0 0 0 0 0 0 0 0 0 0 0 0 0 0 0 0 0 0 0 0 0 0 0 0 0 0 0 0 0 0 0 0 0 0 0 0 0 0 0 0 0
0 0 0 0 0 0 0 0 0 0 0 0 0 0 0 0 0 0 0 0 0 0 0 0 0 0 0 0 0 0 0 0 0 0 0 0 0 0 0 0 0 0 0 0
0 0 0 0 0 0 0 0 0 0 0 0 0 0 0 0 0 0 0 0 0 0 0 0 0 0 0 0 0 0 0 0 0 0 0 0 0 0 0 0 0 0 0 0
0 0 0 0 0 0 0 0 0 0 0 0 0 0 0 0 0 0 0 0 0 0 0 0 0 0 0 0 0 0 0 0 0 0 0 0 0 0 0 0 0 0 0 0
0 0 0 0 0 0 0 0 0 0 0 0 0 0 0 0 0 0 0 0 0 0 0 0 0 0 0 0 0 0 0 0 0 0 0 0 0 0 0 0 0 0 0 0
0 0 0 0 0 0 0 0 0 0 0 0 0 0 0 0 0 0 0 0 0 0 0 0 0 0 0 0 0 0 0 0 0 0 0 0 0 0 0 0 0 0 0 0
0 0 0 0 0 0 0 0 0 0 0 0 0 0 0 0 0 0 0 0 0 0 0 0 0 0 0 0 0 0 0 0 0 0 0 0 0 0 0 0 0 0 0 0
0 0 0 0 0 0 0 0 0 0 0 0 0 0 0 0 0 0 0 0 0 0 0 0 0 0 0 0 0 0 0 0 0 0 0 0 0 0 0 0 0 0 0 0
Height
5752 5753 5754 5755 5757 5758 5760 5761 5763 5762 5762 5763 5763 5764 5765 5765 5766 5767 5767 5768 5769 5769 5769 5769 5769 5769 5769 5768 5767 5766 5765 5764 5762 5760 5758 5756 5754 5751 5749 5747 5744 5742 5740 5737
5751 5752 5752 5753 5754 5755 5755 5756 5756 5756 5756 5756 5756 5757 5757 5757 5758 5758 5759 5759 5759 5759 5759 5759 5758 5758 5758 5757 5756 5755 5754 5753 5751 5749 5747 5745 5742 5740 5737 5735 5732 5730 5727 5724
5751 5750 5750 5751 5751 5750 5750 5750 5750 5750 5750 5749 5749 5749 5749 5749 5749 5749 5749 5749 5749 5749 5749 5749 5749 5748 5748 5747 5746 5745 5744 5742 5740 5738 5736 5733 5731 5729 5726 5723 5721 5718 5714 5711
5750 5750 5749 5750 5747 5746 5745 5744 5744 5743 5743 5742 5742 5741 5741 5741 5741 5741 5741 5741 5741 5740 5740 5740 5740 5739 5738 5737 5736 5735 5734 5732 5731 5729 5726 5723 5721 5718 5715 5712 5709 5705 5702 5698
5749 5748 5747 5746 5744 5742 5741 5739 5738 5737 5736 5735 5734 5734 5734 5733 5733 5733 5733 5733 5733 5732 5732 5732 5731 5731 5730 5729 5728 5726 5725 5723 5721 5719 5716 5714 5711 5708 5705 5701 5697 5694 5689 5685
5748 5746 5744 5743 5740 5738 5737 5734 5732 5731 5729 5729 5728 5728 5728 5727 5727 5726 5726 5726 5726 5725 5725 5724 5724 5723 5722 5721 5720 5718 5717 5715 5712 5710 5708 5705 5702 5698 5695 5691 5686 5682 5677 5672
5746 5744 5742 5740 5736 5735 5734 5732 5728 5726 5725 5724 5723 5723 5722 5721 5721 5721 5721 5721 5720 5720 5719 5718 5718 5717 5716 5714 5713 5711 5709 5707 5705 5703 5700 5697 5693 5689 5685 5681 5676 5671 5665 5660
5745 5742 5741 5736 5733 5732 5730 5726 5724 5722 5721 5720 5719 5719 5718 5717 5717 5716 5716 5716 5715 5714 5714 5713 5712 5711 5710 5708 5706 5705 5703 5701 5698 5696 5693 5689 5685 5681 5676 5671 5666 5660 5654 5648
5744 5742 5737 5734 5731 5728 5725 5723 5721 5720 5718 5717 5716 5715 5715 5714 5713 5713 5712 5712 5711 5710 5709 5708 5707 5705 5704 5702 5701 5699 5697 5695 5693 5690 5686 5682 5678 5674 5669 5664 5658 5652 5646 5641
5741 5738 5735 5732 5728 5726 5723 5721 5719 5718 5716 5715 5714 5713 5712 5712 5711 5710 5709 5708 5707 5706 5705 5704 5702 5701 5699 5698 5696 5694 5692 5690 5687 5684 5680 5676 5672 5667 5662 5657 5651 5646 5640 5635
5741 5737 5733 5730 5727 5724 5721 5719 5717 5716 5715 5713 5712 5711 5710 5709 5709 5708 5706 5705 5704 5703 5701 5700 5698 5697 5695 5694 5692 5690 5688 5685 5682 5679 5675 5671 5667 5662 5657 5652 5647 5642 5637 5633
5740 5736 5733 5729 5726 5723 5720 5718 5716 5715 5713 5712 5711 5710 5709 5708 5707 5705 5704 5703 5701 5700 5698 5696 5694 5693 5691 5690 5688 5686 5684 5681 5678 5675 5671 5667 5663 5658 5653 5649 5645 5640 5636 5633
5739 5736 5732 5728 5725 5722 5720 5717 5716 5714 5713 5711 5710 5709 5708 5706 5705 5703 5702 5700 5698 5696 5695 5693 5691 5689 5688 5686 5684 5682 5680 5678 5675 5672 5668 5664 5660 5656 5652 5648 5644 5640 5637 5634
5739 5735 5731 5728 5725 5722 5719 5717 5715 5713 5712 5711 5709 5708 5707 5705 5704 5702 5700 5698 5696 5693 5691 5689 5687 5686 5684 5682 5681 5679 5677 5675 5672 5669 5666 5662 5659 5655 5651 5648 5645 5642 5639 5637
5739 5735 5732 5728 5724 5721 5719 5717 5715 5713 5712 5710 5709 5707 5706 5704 5702 5700 5698 5696 5693 5691 5688 5686 5684 5682 5680 5679 5677 5676 5675 5673 5670 5668 5665 5662 5659 5655 5652 5649 5647 5644 5642 5640
5738 5735 5731 5728 5724 5721 5719 5717 5715 5713 5712 5710 5709 5707 5705 5703 5701 5699 5696 5694 5691 5688 5685 5683 5680 5678 5677 5676 5675 5673 5672 5670 5668 5666 5664 5661 5659 5656 5654 5651 5649 5647 5645 5644
5738 5735 5731 5728 5724 5722 5719 5717 5715 5713 5712 5710 5709 5707 5705 5703 5700 5697 5695 5692 5689 5686 5683 5681 5678 5676 5674 5673 5672 5671 5670 5669 5667 5665 5664 5662 5659 5657 5655 5653 5651 5650 5649 5647
5738 5734 5731 5728 5725 5722 5719 5717 5715 5713 5712 5710 5709 5707 5705 5702 5699 5697 5694 5691 5688 5685 5682 5679 5676 5674 5673 5671 5671 5670 5669 5668 5666 5665 5663 5662 5660 5658 5657 5655 5654 5653 5651 5650
5737 5734 5731 5728 5725 5722 5719 5717 5715 5714 5712 5711 5709 5707 5705 5702 5699 5696 5693 5690 5687 5684 5681 5678 5675 5673 5672 5670 5669 5668 5667 5666 5666 5664 5663 5662 5661 5659 5658 5657 5656 5655 5654 5653
5737 5734 5731 5728 5725 5722 5720 5718 5716 5714 5713 5711 5709 5708 5705 5703 5699 5696 5693 5690 5687 5684 5681 5678 5675 5673 5671 5669 5668 5667 5666 5666 5665 5664 5663 5662 5661 5660 5659 5658 5657 5656 5655 5654
5736 5733 5731 5728 5725 5723 5720 5718 5716 5715 5713 5711 5710 5708 5706 5703 5700 5697 5694 5691 5688 5684 5681 5678 5675 5672 5670 5668 5667 5666 5665 5664 5664 5663 5662 5662 5661 5660 5659 5659 5658 5657 5656 5656
5735 5733 5730 5728 5725 5723 5720 5718 5716 5715 5713 5712 5710 5708 5706 5704 5701 5698 5695 5692 5689 5685 5682 5679 5676 5673 5670 5668 5666 5665 5664 5663 5663 5662 5662 5661 5661 5660 5659 5659 5658 5658 5657 5656
5733 5732 5730 5727 5725 5723 5720 5718 5717 5715 5714 5712 5711 5709 5707 5705 5702 5700 5697 5694 5690 5687 5684 5681 5677 5674 5671 5669 5667 5666 5664 5663 5663 5662 5661 5661 5660 5660 5659 5659 5658 5658 5657 5657
5732 5730 5729 5727 5724 5722 5720 5718 5717 5715 5714 5712 5711 5709 5708 5706 5703 5701 5698 5695 5692 5689 5686 5683 5680 5676 5674 5671 5669 5667 5665 5664 5663 5662 5661 5661 5660 5660 5659 5659 5659 5658 5658 5657
5730 5729 5727 5726 5724 5722 5720 5718 5716 5715 5714 5712 5711 5710 5708 5706 5705 5702 5700 5697 5694 5691 5688 5685 5682 5679 5676 5673 5671 5669 5667 5666 5664 5663 5662 5661 5661 5660 5660 5660 5659 5659 5659 5658
5727 5727 5725 5724 5723 5721 5719 5717 5716 5715 5713 5712 5711 5710 5708 5707 5705 5703 5701 5698 5696 5693 5690 5688 5685 5682 5679 5676 5674 5672 5670 5668 5666 5665 5664 5663 5662 5662 5661 5661 5661 5660 5660 5659
5724 5724 5723 5722 5721 5719 5718 5716 5715 5714 5713 5712 5711 5710 5708 5707 5706 5704 5702 5700 5698 5695 5693 5690 5687 5685 5682 5680 5677 5675 5673 5671 5670 5668 5667 5666 5665 5664 5664 5663 5663 5662 5662 5662
Wind_Speed
6 8 10 12 14 15 17 19 21 23 24 25 26 27 28 29 31 32 33 34 35 36 38 39 40 40 41 41 42 42 42 42 42 42 42 43 44 45 45 46 48 48 48 49
4 7 9 11 14 16 18 20 22 24 25 26 26 27 28 29 30 31 32 33 33 34 35 35 36 36 37 37 38 38 39 40 41 41 42 42 42 42 42 44 46 47 48 49
2 5 7 10 12 15 17 19 21 23 24 25 25 26 27 28 28 28 29 29 30 30 31 32 32 33 33 34 34 35 36 37 38 38 39 40 39 40 42 43 45 46 47 49
3 4 7 8 11 13 16 18 20 21 22 23 23 24 25 26 26 26 26 26 27 28 28 29 30 30 31 32 32 33 34 35 36 36 37 38 39 40 42 43 45 47 48 50
6 6 7 9 11 13 15 17 18 19 20 21 22 23 24 24 24 23 23 24 25 26 26 26 27 27 28 29 30 31 32 33 34 35 37 38 39 39 41 42 44 45 47 49
7 8 9 10 11 13 14 15 15 16 17 17 18 19 19 19 20 21 20 20 21 22 22 22 23 25 26 27 27 28 29 29 30 31 33 34 35 36 38 40 42 44 45 47
9 9 9 11 11 12 12 13 13 14 14 14 14 14 15 15 16 16 16 17 18 19 19 20 21 22 23 23 24 25 25 26 27 28 30 31 33 34 36 38 39 41 43 44
11 11 11 12 11 11 12 12 11 11 10 11 11 11 12 12 12 13 14 15 15 16 17 18 19 19 20 21 22 22 23 24 24 26 27 28 29 31 32 34 35 36 37 36
12 12 12 12 11 11 10 10 9 8 8 7 8 9 9 10 10 10 11 12 13 14 16 17 17 18 18 19 19 20 20 20 22 23 24 25 27 28 29 31 31 31 29 27
13 14 14 13 12 11 10 8 7 7 7 6 6 6 6 7 8 9 10 11 12 13 14 15 15 16 16 17 17 18 18 18 19 21 22 23 25 26 26 26 26 24 23 20
15 15 14 13 12 11 9 8 7 7 6 6 6 6 6 6 7 8 9 10 11 12 12 13 14 14 14 14 14 15 16 17 18 19 20 21 22 22 22 21 20 18 16 14
15 16 15 14 13 11 9 8 7 7 6 6 6 6 6 6 7 8 9 10 11 11 12 12 13 13 13 13 13 14 14 15 16 17 18 19 19 18 18 17 16 14 12 11
15 15 15 14 13 11 10 8 7 7 6 6 6 6 6 7 8 8 9 10 10 11 12 12 12 12 12 12 12 12 13 14 15 15 16 16 15 15 15 14 13 11 10 10
15 15 15 14 13 12 10 9 7 6 6 6 6 6 7 7 8 9 10 10 11 11 12 12 12 12 12 11 11 11 11 12 13 13 13 13 13 13 12 11 10 10 10 10
15 15 15 14 14 12 10 9 7 6 6 6 6 6 7 8 9 9 10 11 11 12 12 11 11 11 11 10 10 10 10 10 11 11 11 11 11 11 11 10 9 9 10 11
14 15 15 14 13 12 10 9 7 6 6 6 6 7 8 9 10 11 11 11 12 12 11 11 11 10 9 8 8 7 8 8 8 8 9 9 9 9 9 9 9 9 10 10
14 15 15 14 13 12 10 9 8 6 6 6 7 8 9 10 11 12 12 12 12 12 12 11 10 8 7 6 6 6 6 6 7 7 7 8 8 8 8 8 9 9 9 9
14 15 15 14 13 12 10 9 8 7 7 7 8 9 11 12 13 13 13 13 13 13 12 11 10 8 6 6 5 5 5 5 6 6 6 6 7 7 7 7 8 8 8 8
13 14 15 14 14 12 10 9 8 7 7 7 8 10 12 13 14 14 14 14 14 13 13 11 10 8 7 6 5 5 5 5 5 5 5 5 5 5 6 6 6 6 6 6
12 14 14 14 13 12 11 9 8 7 7 8 9 10 12 13 14 15 15 15 15 15 14 13 11 9 7 6 6 5 4 4 4 4 4 3 3 3 4 4 4 4 4 4
11 13 14 14 13 12 11 10 8 8 7 8 9 10 12 14 15 16 16 16 15 15 15 14 12 10 8 7 6 5 4 4 3 3 3 2 2 2 2 2 3 3 3 3
11 12 13 13 12 12 11 10 9 8 7 7 8 10 12 13 15 16 17 16 16 15 15 15 14 12 10 9 7 5 4 4 3 2 2 2 2 2 1 1 1 2 2 3
10 11 12 12 12 11 10 9 8 8 7 7 8 9 11 13 14 16 17 17 16 16 16 16 16 14 12 11 8 7 6 4 3 2 2 2 2 2 1 1 1 1 2 2
9 10 11 11 11 11 10 9 8 7 7 7 7 8 10 11 13 15 16 16 16 16 16 16 16 15 14 13 11 9 7 6 4 4 3 3 3 2 2 2 2 2 2 2
9 9 10 11 10 10 9 8 8 7 7 6 7 7 9 10 12 14 15 15 16 16 16 16 16 16 15 15 13 11 10 8 7 6 5 5 4 4 4 4 3 3 3 3
9 9 10 10 10 9 9 8 7 7 6 6 6 6 7 9 10 12 14 14 15 16 16 16 16 16 16 15 15 14 12 11 10 8 8 7 7 6 6 5 5 5 5 6
10 10 10 10 10 9 9 8 7 6 6 5 5 6 6 7 9 10 12 13 14 15 15 15 15 15 15 15 15 14 13 13 12 11 10 9 9 8 8 7 7 7 7 8
Wind_Direction
213 221 224 224 229 233 236 238 243 250 253 255 256 257 258 259 259 260 261 262 263 264 265 266 267 268 270 272 273 274 274 274 275 277 277 277 276 275 274 274 273 274 274 274
229 231 235 239 241 244 247 249 253 257 260 260 262 263 262 262 263 262 263 264 265 267 267 268 269 270 271 272 272 273 274 274 274 275 275 273 272 271 270 271 273 273 273 274
278 253 254 257 255 255 256 257 259 262 264 265 265 265 265 264 264 263 264 266 268 267 268 269 269 269 270 270 271 271 271 272 272 271 269 268 268 268 270 273 275 276 278 279
328 298 279 280 274 271 268 267 267 267 267 266 265 263 262 262 264 266 269 268 266 267 268 269 269 269 270 270 271 271 271 272 271 270 272 273 274 276 278 280 281 282 283 283
344 320 302 292 287 282 280 277 275 273 270 267 266 265 263 265 266 265 265 266 265 266 268 268 269 270 271 271 273 273 273 274 274 277 279 281 283 285 287 288 288 289 289 289
346 328 314 306 301 295 289 285 282 279 276 272 269 265 264 264 262 261 262 264 266 269 271 271 272 273 274 274 276 277 278 280 283 285 287 288 290 291 292 292 293 293 293 293
347 336 325 319 312 305 298 294 290 286 279 276 274 270 266 264 264 262 262 266 269 271 274 276 276 276 278 279 281 283 285 287 289 291 292 293 294 296 297 298 299 299 298 297
352 345 338 330 323 315 308 305 301 294 288 281 278 275 270 268 268 268 268 269 270 273 275 276 277 279 282 284 287 290 292 294 294 296 298 300 302 304 306 306 306 306 305 304
356 350 343 340 334 326 321 317 313 309 305 299 287 282 280 280 278 276 278 280 281 281 281 281 283 285 288 291 294 296 297 298 300 302 304 305 307 309 310 312 313 313 312 312
360 355 351 348 343 339 335 331 328 324 320 316 311 303 295 288 285 285 287 290 291 291 289 289 290 293 294 295 297 298 299 303 307 309 310 312 315 316 316 317 319 320 320 320
3 358 356 354 351 349 346 343 339 336 330 325 323 319 311 303 298 297 298 299 299 298 297 297 298 298 297 297 302 304 306 309 312 315 317 320 321 323 324 325 325 328 332 336
3 1 359 358 356 355 353 351 347 343 338 331 326 324 322 317 311 308 306 306 304 302 302 302 301 301 301 302 305 307 310 314 318 320 323 326 328 332 335 337 339 343 351 3
4 3 3 1 1 360 358 356 351 345 341 337 331 328 326 323 320 317 316 314 310 308 308 306 305 304 304 305 307 310 314 320 325 327 330 335 339 343 347 353 359 8 20 33
6 5 5 5 4 3 1 357 353 348 344 342 338 335 333 330 328 326 324 324 321 317 314 311 308 306 304 305 307 312 318 324 329 333 339 346 353 358 3 9 19 30 42 53
8 8 7 6 6 5 2 359 357 354 351 348 347 348 346 342 339 336 334 332 330 326 321 316 313 310 307 307 309 312 319 327 334 340 349 358 6 13 20 29 38 49 59 67
9 10 9 7 6 5 3 1 1 1 1 3 4 1 356 352 348 344 341 339 338 337 333 329 325 320 315 314 316 318 323 332 341 349 359 9 18 25 33 43 53 61 69 74
10 11 10 9 7 6 5 5 7 9 11 11 10 6 3 359 355 352 350 347 346 345 343 342 339 333 326 323 322 327 335 343 350 358 8 18 27 35 43 53 60 67 73 77
11 12 11 10 9 8 7 10 13 14 13 13 12 11 8 4 2 360 358 356 354 352 350 349 350 350 346 341 336 336 344 351 357 3 10 20 32 41 49 59 65 71 76 78
9 10 10 10 9 9 9 11 13 14 14 14 15 15 12 10 8 7 5 5 4 3 1 358 357 354 351 347 342 340 343 348 355 359 5 16 31 42 51 60 67 70 73 75
6 8 8 9 9 9 9 9 11 13 14 15 16 16 15 15 14 12 10 8 8 8 7 4 1 359 355 351 347 345 343 344 346 351 359 9 23 38 47 55 62 66 64 62
1 4 5 6 8 9 9 10 11 12 12 14 15 15 15 16 16 16 15 13 12 11 9 7 5 3 0 355 349 347 346 344 343 345 352 358 6 21 35 42 47 48 44 39
354 358 1 3 5 7 8 9 9 9 10 11 12 13 15 16 17 17 17 17 18 17 15 15 15 13 10 6 5 5 3 357 349 346 352 357 357 357 1 7 17 21 20 21
344 351 355 358 1 3 5 6 6 6 7 8 10 12 14 16 17 18 19 21 22 21 21 21 22 22 22 23 25 24 21 17 17 20 23 23 17 15 17 20 18 15 18 21
332 341 347 352 356 358 360 0 1 2 4 5 7 10 12 14 16 18 20 22 23 24 24 24 25 28 30 32 33 32 32 34 37 40 43 43 38 40 46 51 52 50 46 43
318 330 337 343 348 351 353 353 354 356 357 359 2 5 9 12 14 17 19 21 23 25 26 27 29 30 32 34 35 37 39 41 43 47 52 56 59 63 68 73 73 72 72 72
304 317 327 333 338 341 343 344 344 345 347 350 354 359 4 9 13 16 20 22 23 24 26 27 30 32 34 36 38 40 43 46 49 55 60 65 68 71 74 77 80 82 82 83
290 303 314 321 326 329 331 332 331 331 332 334 338 345 353 1 7 12 18 21 23 25 27 29 31 34 36 39 41 43 46 49 53 56 60 65 69 73 76 80 84 87 88 88